Regional Weather Roundup
Issued by NWS

Home | Current Version | Previous Version | Graphics & Text | Print | Product List | Glossary On
Versions: 1 2 3 4 5 6 7 8 9 10 11 12 13 14 15 16 17 18 19 20 21 22 23 24 25 26 27 28 29 30 31 32 33 34 35 36 37 38 39 40 41 42 43 44 45 46 47 48 49 50
000
ASUS43 KLMK 011302
RWRKY
KENTUCKY REGIONAL WEATHER ROUNDUP
NATIONAL WEATHER SERVICE LOUISVILLE KY
800 AM EST SUN FEB 01 2015

NOTE "FAIR" INDICATES FEW OR NO CLOUDS BELOW 12,000 FEET
WITH NO SIGNIFICANT WEATHER AND/OR OBSTRUCTIONS TO VISIBILITY.

KYZ001>023-026-027-061>063-070>075-011400-
WESTERN AND SOUTH CENTRAL KENTUCKY

CITY           SKY/WX    TMP DP  RH WIND       PRES   REMARKS
PADUCAH        RAIN      43  36  76 S15G24    29.85F
HENDERSON      CLOUDY    45  21  39 SE10      29.87F
OWENSBORO      CLOUDY    44  24  45 SE13      29.91F
HOPKINSVILLE   DRIZZLE   48  24  38 S10       29.94F
BOWLING GREEN  CLOUDY    47  20  34 SE8       30.00F
GLASGOW        NOT AVBL
$$

KYZ024-025-028>034-038-045-046-053-011400-
NORTH CENTRAL KENTUCKY

CITY           SKY/WX    TMP DP  RH WIND       PRES   REMARKS
LOUISVILLE/SDF CLOUDY    41  18  39 SE14      29.97F
LOUISVILLE/LOU CLOUDY    41  16  36 SE9       29.99F
FORT KNOX      CLOUDY    40  18  39 SE9       29.96F WCI  35
$$

KYZ035>037-039>044-047>052-055>060-089>105-011400-
NORTHEAST KENTUCKY

CITY           SKY/WX    TMP DP  RH WIND       PRES   REMARKS
LEXINGTON      CLOUDY    39  15  37 SE14      30.05F WCI  31
COVINGTON      CLOUDY    35  29  78 SE15      29.99F WCI  25
FRANKFORT      CLOUDY    39  16  39 SE10      30.02F WCI  32
$$

KYZ054-064>069-076>088-106>120-011400-
SOUTHEAST KENTUCKY

CITY           SKY/WX    TMP DP  RH WIND       PRES   REMARKS
JACKSON        CLOUDY    36  15  42 SE3       30.10F
LONDON         CLOUDY    40  13  33 S3        30.09F
SOMERSET       NOT AVBL
MIDDLESBORO    NOT AVBL
MONTICELLO     CLOUDY    45  19  35 SE7       30.10F
$$




USA.gov is the U.S. government's official web portal to all federal, state and local government web resources and services.